• în Republica Moldova
  • Lista ţărilor
  • Pe 7 zile
  • Temperatura apei
  • Hartă satelitară
  • Meteo pe hartă
  • Widget-uri
  • user-avatar
    Intrare

    Meteo pe oră la Albany

    Astăzi, 27 Martie, Luni

    Timp Temperatura Precipitaţii Vânt Presiune Umiditate
    00:00 +14°C° 0 mm 6 m/s 759 mmHg 72%
    01:00 +14°C° 0 mm 5 m/s 760 mmHg 74%
    02:00 +13°C° 0 mm 5 m/s 760 mmHg 75%
    03:00 +13°C° 0 mm 5 m/s 760 mmHg 77%
    04:00 +13°C° 0 mm 4 m/s 760 mmHg 78%
    05:00 +13°C° 0 mm 4 m/s 760 mmHg 80%
    06:00 +14°C° 0 mm 4 m/s 761 mmHg 77%
    07:00 +14°C° 0 mm 4 m/s 761 mmHg 75%
    08:00 +15°C° 0 mm 5 m/s 761 mmHg 71%
    09:00 +16°C° 0 mm 5 m/s 761 mmHg 68%
    10:00 +17°C° 0 mm 5 m/s 761 mmHg 64%
    11:00 +19°C° 0 mm 5 m/s 761 mmHg 61%
    12:00 +20°C° 0 mm 5 m/s 761 mmHg 59%
    13:00 +21°C° 0 mm 6 m/s 761 mmHg 56%
    14:00 +21°C° 0 mm 6 m/s 760 mmHg 54%
    15:00 +21°C° 0 mm 6 m/s 760 mmHg 56%
    16:00 +20°C° 0 mm 6 m/s 760 mmHg 59%
    17:00 +20°C° 0 mm 6 m/s 760 mmHg 61%
    18:00 +19°C° 0 mm 6 m/s 760 mmHg 66%
    19:00 +17°C° 0 mm 5 m/s 760 mmHg 71%
    20:00 +16°C° 0 mm 5 m/s 760 mmHg 76%
    21:00 +15°C° 0 mm 5 m/s 760 mmHg 79%
    22:00 +15°C° 0 mm 5 m/s 760 mmHg 81%
    23:00 +15°C° 0 mm 5 m/s 760 mmHg 83%

    Mâine, 28 Martie, Marţi

    Timp Temperatura Precipitaţii Vânt Presiune Umiditate
    00:00 +14°C° 0 mm 5 m/s 759 mmHg 85%
    01:00 +14°C° 0 mm 5 m/s 759 mmHg 87%
    02:00 +14°C° 0 mm 5 m/s 759 mmHg 88%
    03:00 +14°C° 0 mm 5 m/s 759 mmHg 88%
    04:00 +14°C° 0 mm 5 m/s 759 mmHg 87%
    05:00 +15°C° 0 mm 5 m/s 759 mmHg 87%
    06:00 +15°C° 0 mm 5 m/s 759 mmHg 84%
    07:00 +16°C° 0 mm 5 m/s 759 mmHg 81%
    08:00 +16°C° 0 mm 6 m/s 759 mmHg 78%
    09:00 +17°C° 0,1 mm 6 m/s 759 mmHg 74%
    10:00 +17°C° 0,1 mm 6 m/s 759 mmHg 70%
    11:00 +19°C° 0,1 mm 6 m/s 759 mmHg 66%
    12:00 +19°C° 0 mm 6 m/s 759 mmHg 63%
    13:00 +20°C° 0 mm 7 m/s 759 mmHg 60%
    14:00 +21°C° 0 mm 7 m/s 758 mmHg 57%
    15:00 +20°C° 0,1 mm 7 m/s 759 mmHg 63%
    16:00 +18°C° 0,1 mm 7 m/s 759 mmHg 69%
    17:00 +17°C° 0,1 mm 7 m/s 759 mmHg 76%
    18:00 +16°C° 0,1 mm 7 m/s 760 mmHg 75%
    19:00 +16°C° 0,1 mm 6 m/s 761 mmHg 75%
    20:00 +15°C° 0,1 mm 6 m/s 762 mmHg 75%
    21:00 +15°C° 0 mm 6 m/s 762 mmHg 72%
    22:00 +14°C° 0 mm 6 m/s 762 mmHg 69%
    23:00 +14°C° 0 mm 5 m/s 763 mmHg 66%

    Poimâine, 29 Martie, Miercuri

    Timp Temperatura Precipitaţii Vânt Presiune Umiditate
    00:00 +14°C° 0 mm 5 m/s 763 mmHg 66%
    01:00 +13°C° 0 mm 5 m/s 763 mmHg 65%
    02:00 +13°C° 0 mm 5 m/s 763 mmHg 65%
    03:00 +13°C° 0 mm 5 m/s 764 mmHg 64%
    04:00 +13°C° 0 mm 4 m/s 764 mmHg 63%
    05:00 +13°C° 0 mm 4 m/s 765 mmHg 62%
    06:00 +13°C° 0 mm 4 m/s 765 mmHg 61%
    07:00 +14°C° 0 mm 4 m/s 766 mmHg 60%
    08:00 +14°C° 0 mm 4 m/s 766 mmHg 59%
    09:00 +14°C° 0 mm 4 m/s 766 mmHg 58%
    10:00 +15°C° 0 mm 4 m/s 767 mmHg 56%
    11:00 +16°C° 0 mm 3 m/s 767 mmHg 55%
    12:00 +17°C° 0 mm 3 m/s 766 mmHg 53%
    13:00 +17°C° 0 mm 4 m/s 766 mmHg 52%
    14:00 +18°C° 0 mm 4 m/s 766 mmHg 50%
    15:00 +18°C° 0 mm 4 m/s 765 mmHg 52%
    16:00 +17°C° 0 mm 4 m/s 765 mmHg 55%
    17:00 +17°C° 0 mm 4 m/s 765 mmHg 57%
    18:00 +15°C° 0 mm 4 m/s 766 mmHg 61%
    19:00 +14°C° 0 mm 4 m/s 766 mmHg 65%
    20:00 +13°C° 0 mm 4 m/s 766 mmHg 69%
    21:00 +12°C° 0 mm 4 m/s 766 mmHg 70%
    22:00 +12°C° 0 mm 4 m/s 766 mmHg 72%
    23:00 +12°C° 0 mm 4 m/s 766 mmHg 73%

    30 Martie, Joi

    Timp Temperatura Precipitaţii Vânt Presiune Umiditate
    00:00 +12°C° 0 mm 4 m/s 766 mmHg 75%
    01:00 +12°C° 0 mm 4 m/s 766 mmHg 76%
    02:00 +11°C° 0 mm 4 m/s 765 mmHg 78%
    03:00 +11°C° 0 mm 4 m/s 765 mmHg 79%
    04:00 +11°C° 0 mm 4 m/s 765 mmHg 80%
    05:00 +11°C° 0 mm 4 m/s 765 mmHg 81%
    06:00 +11°C° 0 mm 4 m/s 765 mmHg 77%
    07:00 +12°C° 0 mm 4 m/s 765 mmHg 73%
    08:00 +13°C° 0 mm 4 m/s 765 mmHg 69%
    09:00 +15°C° 0 mm 4 m/s 765 mmHg 61%
    10:00 +19°C° 0 mm 3 m/s 765 mmHg 53%
    11:00 +21°C° 0 mm 3 m/s 764 mmHg 44%
    12:00 +23°C° 0 mm 2 m/s 764 mmHg 42%
    13:00 +24°C° 0 mm 2 m/s 763 mmHg 39%
    14:00 +25°C° 0 mm 2 m/s 762 mmHg 37%
    15:00 +24°C° 0 mm 2 m/s 762 mmHg 42%
    16:00 +22°C° 0 mm 3 m/s 762 mmHg 48%
    17:00 +21°C° 0 mm 3 m/s 762 mmHg 53%
    18:00 +19°C° 0 mm 3 m/s 763 mmHg 61%
    19:00 +17°C° 0 mm 2 m/s 763 mmHg 69%
    20:00 +16°C° 0 mm 2 m/s 764 mmHg 78%
    21:00 +15°C° 0 mm 2 m/s 764 mmHg 80%
    22:00 +15°C° 0 mm 2 m/s 764 mmHg 82%
    23:00 +15°C° 0 mm 2 m/s 764 mmHg 84%

    31 Martie, Vineri

    Timp Temperatura Precipitaţii Vânt Presiune Umiditate
    00:00 +14°C° 0 mm 2 m/s 764 mmHg 85%
    01:00 +14°C° 0 mm 2 m/s 764 mmHg 86%
    02:00 +14°C° 0 mm 2 m/s 764 mmHg 87%
    03:00 +14°C° 0 mm 2 m/s 764 mmHg 87%
    04:00 +14°C° 0 mm 2 m/s 764 mmHg 86%
    05:00 +13°C° 0 mm 3 m/s 764 mmHg 86%
    06:00 +14°C° 0 mm 3 m/s 765 mmHg 81%
    07:00 +16°C° 0 mm 3 m/s 765 mmHg 77%
    08:00 +17°C° 0 mm 3 m/s 766 mmHg 72%
    09:00 +18°C° 0 mm 3 m/s 766 mmHg 67%
    10:00 +19°C° 0 mm 3 m/s 766 mmHg 62%
    11:00 +20°C° 0 mm 3 m/s 766 mmHg 57%
    12:00 +21°C° 0 mm 4 m/s 766 mmHg 56%
    13:00 +21°C° 0 mm 4 m/s 765 mmHg 55%
    14:00 +21°C° 0 mm 4 m/s 765 mmHg 54%
    15:00 +20°C° 0 mm 4 m/s 765 mmHg 57%
    16:00 +20°C° 0 mm 4 m/s 765 mmHg 60%
    17:00 +19°C° 0 mm 5 m/s 766 mmHg 64%
    18:00 +17°C° 0 mm 5 m/s 766 mmHg 68%
    19:00 +17°C° 0 mm 4 m/s 767 mmHg 73%
    20:00 +15°C° 0 mm 4 m/s 767 mmHg 78%
    21:00 +15°C° 0 mm 4 m/s 767 mmHg 80%
    22:00 +15°C° 0 mm 4 m/s 767 mmHg 81%
    23:00 +14°C° 0 mm 4 m/s 767 mmHg 83%

    1 Aprilie, Sâmbătă

    Timp Temperatura Precipitaţii Vânt Presiune Umiditate
    00:00 +14°C° 0 mm 4 m/s 767 mmHg 84%
    01:00 +14°C° 0 mm 4 m/s 767 mmHg 85%
    02:00 +14°C° 0 mm 4 m/s 767 mmHg 86%
    03:00 +14°C° 0 mm 4 m/s 767 mmHg 87%
    04:00 +14°C° 0 mm 4 m/s 767 mmHg 87%
    05:00 +14°C° 0 mm 5 m/s 767 mmHg 87%
    06:00 +15°C° 0 mm 5 m/s 767 mmHg 83%
    07:00 +15°C° 0 mm 5 m/s 767 mmHg 79%
    08:00 +16°C° 0 mm 5 m/s 768 mmHg 75%
    09:00 +19°C° 0 mm 5 m/s 767 mmHg 68%
    10:00 +20°C° 0 mm 5 m/s 767 mmHg 62%
    11:00 +21°C° 0 mm 5 m/s 767 mmHg 55%
    12:00 +22°C° 0 mm 5 m/s 766 mmHg 54%
    13:00 +23°C° 0 mm 6 m/s 766 mmHg 53%
    14:00 +23°C° 0 mm 6 m/s 765 mmHg 52%
    15:00 +22°C° 0 mm 6 m/s 765 mmHg 56%
    16:00 +21°C° 0 mm 6 m/s 765 mmHg 60%
    17:00 +21°C° 0 mm 6 m/s 765 mmHg 64%
    18:00 +20°C° 0 mm 6 m/s 766 mmHg 68%
    19:00 +19°C° 0 mm 6 m/s 766 mmHg 73%
    20:00 +17°C° 0 mm 6 m/s 766 mmHg 78%
    21:00 +16°C° 0 mm 6 m/s 766 mmHg 79%
    22:00 +16°C° 0 mm 6 m/s 766 mmHg 81%
    23:00 +16°C° 0 mm 6 m/s 766 mmHg 82%
    Arată mai mult